Regional Weather Roundup
Issued by NWS

Home | Current Version | Previous Version | Graphics & Text | Print | Product List | Glossary Off
Versions: 1 2 3 4 5 6 7 8 9 10 11 12 13 14 15 16 17 18 19 20 21 22 23 24 25 26 27 28 29 30 31 32 33 34 35 36 37 38 39 40 41 42 43 44 45 46 47 48 49 50

000
ASUS43 KFSD 010110
RWRSD

WEATHER ROUNDUP FOR SOUTH DAKOTA
NATIONAL WEATHER SERVICE SIOUX FALLS SD
800 PM CDT MON AUG 31 2015

NOTE: "FAIR" INDICATES FEW OR NO CLOUDS BELOW 12,000 FEET WITH NO
SIGNIFICANT WEATHER AND/OR OBSTRUCTIONS TO VISIBILITY.


SDZ001>005-009-010-012>017-010200-
NORTHWEST AND NORTH CENTRAL SOUTH DAKOTA

CITY           SKY/WX    TMP DP  RH WIND       PRES   REMARKS
BUFFALO          N/A     74  50  42 E6        29.86F
FAITH            N/A     74  48  39 E3        29.92F
MOBRIDGE       PTCLDY    69  62  78 NE5       29.87S
$$

SDZ012>016-024>037-041>051-057-063-072>074-010200-
SOUTHWEST AND SOUTH CENTRAL SOUTH DAKOTA

CITY           SKY/WX    TMP DP  RH WIND       PRES   REMARKS
RAPID CTY ARPT MOCLDY    69  59  70 CALM      29.94F
PIERRE         CLOUDY    74  63  68 E3        29.88S
CUSTER         MOCLDY    64  52  64 E5        30.06F
ELLSWORTH AFB  MOCLDY    70  59  67 SE9       29.93F
PHILIP         MOCLDY    73  62  68 SE6       29.91S
PINE RIDGE     MOCLDY    74  58  57 E7        29.96S
WINNER         FAIR      76  62  62 NW3       29.91F
$$

SDZ004>011-016>023-039-040-010200-
NORTHEAST SOUTH DAKOTA

CITY           SKY/WX    TMP DP  RH WIND       PRES   REMARKS
ABERDEEN       MOCLDY    70  64  81 CALM      29.87R
WATERTOWN      MOCLDY    75  65  70 CALM      29.85F
BROOKINGS      PTCLDY    77  70  78 S7        29.88S
SISSETON         N/A     73  67  81 NW6       29.84R
$$

SDZ017-020-022-023-036>040-048>070-010200-
SOUTHEAST SOUTH DAKOTA

CITY           SKY/WX    TMP DP  RH WIND       PRES   REMARKS
SIOUX FALLS    CLOUDY    78  70  76 S12       29.87R
HURON          MOCLDY    73  67  81 NW6       29.85S
CHAMBERLAIN    MOCLDY    75  64  69 CALM      29.89S
MITCHELL       MOCLDY    76  69  79 NE5       29.84F
YANKTON        CLEAR     79  70  73 SE6       29.85R
$$

ABBREVIATIONS USED IN REMARKS
   TC - TEMPERATURE IN CELSIUS
  WCI - WIND CHILL INDEX
   HX - HEAT INDEX
  VSB - VISIBILITY



USA.gov is the U.S. government's official web portal to all federal, state and local government web resources and services.